Hourly Data Report for October 03, 2013

All times are specified in Local Standard Time (LST). Add 1 hour to adjust for Daylight Saving Time where and when it is observed.

CAPE DORSET A
NUNAVUT

64°13'49.000" N
76°31'30.000" W
48.20 m
2400637
71366
YTE

Download Data

Hourly Data (October 2013)
Hourly Data Report for October 3, 2013
Temp Definition
°C
Dew Point Temp Definition
°C
Rel Hum Definition
%
Wind Dir Definition
10's deg

Wind Spd Definition
km/h
Visibility Definition
km
Stn Press Definition
kPa
Hmdx Definition


Wind Chill Definition


Weather Definition


TIME
00:00 Legend Double Dagger 0.8 -0.1 94 4 21 16.1 99.87     LegendNANA
01:00 Legend Double Dagger 0.5 -0.5 93 2 33 16.1 99.92     LegendNANA
02:00 Legend Double Dagger 0.4 -0.6 93 2 26 16.1 99.93     LegendNANA
03:00 Legend Double Dagger 0.4 -0.5 94 2 28 16.1 99.99     LegendNANA
04:00 Legend Double Dagger 0.4 -0.5 94 36 24 16.1 100.04     LegendNANA
05:00 Legend Double Dagger 0.5 -1.1 89 2 28 16.1 100.12     LegendNANA
06:00 Legend Double Dagger 0.0 -1.1 92 2 32 16.1 100.18   -7 LegendNANA
07:00 Legend Double Dagger 0.1 -1.4 90 4 18 16.1 100.25     LegendNANA
08:00 Legend Double Dagger 0.2 -1.5 88 3 26 16.1 100.31     LegendNANA
09:00 Legend Double Dagger 0.4 -1.6 87 3 28 16.1 100.34     LegendNANA
10:00 Legend Double Dagger 0.3 -1.3 89 3 22 16.1 100.40     LegendNANA
11:00 Legend Double Dagger 0.7 -1.6 85 3 28 16.1 100.42     LegendNANA
12:00 Legend Double Dagger 1.0 -1.4 84 3 24 16.1 100.47     LegendNANA
13:00 Legend Double Dagger 1.0 -1.4 84 2 28 16.1 100.54     LegendNANA
14:00 Legend Double Dagger 0.7 -1.7 84 4 24 16.1 100.60     LegendNANA
15:00 Legend Double Dagger 0.8 -1.9 82 4 17 16.1 100.67     LegendNANA
16:00 Legend Double Dagger 0.5 -2.2 82 5 21 16.1 100.74     LegendNANA
17:00 Legend Double Dagger -0.4 -2.5 86 3 24 16.1 100.78   -6 LegendNANA
18:00 Legend Double Dagger -0.9 -3.0 86 1 17 16.1 100.88   -6 LegendNANA
19:00 Legend Double Dagger -1.8 -3.9 86 2 18 16.1 100.90   -7 LegendNANA
20:00 Legend Double Dagger -2.0 -3.9 87 3 18 16.1 100.93   -7 LegendNANA
21:00 Legend Double Dagger -2.1 -4.0 87 36 13 16.1 100.96   -7 LegendNANA
22:00 Legend Double Dagger -2.5 -4.4 87 36 18 16.1 100.98   -8 LegendNANA
23:00 Legend Double Dagger -2.4 -4.2 87 1 17 16.1 100.99   -8 LegendNANA

Notes on Data Quality.

Legend

  • E = Estimated
  • M = Missing
  • NA = Not Available
  • ‡ = Partner data that is not subject to review by the National Climate Archives
Date modified: